Location: Glencliff
(36.1226°N, 86.7183°W)
Time: 19:35:09
(UTC+00:00)

CZ-2C R/B - Pass Details

Date: 25 August 2019
Orbit: 785 x 870 km, 98.3° (Epoch: 22 September)

Event Time Altitude Azimuth Distance (km) Brightness Sun altitude
Rises 02:41:14 0° 14° (NNE) 3,331 6.1 -25.5°
Reaches altitude 10° 02:43:33 10° 16° (NNE) 2,407 5.3 -25.8°
Enters shadow 02:48:41 76° 74° (ENE) 854 2.5 -26.6°
